GW0564 Weather Reports


Display with metric or nautical units.
time (UTC)temp
F
wind
direction
speed
MPH
gust
MPH
rain 1hr
in
rain 24hr
in
rain mn
in
humidity
%
barometer
mb
20260504130521 42 88 4.0 8.0 0.00 0.00 0.00 57 1012.3
20260504110519 43 248 0.0 2.0 0.00 0.00 0.00 55 1011.0
20260504100520 46 11 3.0 8.0 0.00 0.00 0.00 49 1011.0
20260504081542 46 53 0.0 4.0 0.00 0.00 0.00 48 1011.1
20260504081019 46 52 1.0 3.0 0.00 0.00 0.00 48 1011.0
20260504080522 46 0 1.0 3.0 0.00 0.00 0.00 47 1011.2
20260504050522 51 0 0.0 0.0 0.00 0.00 0.00 38 1011.6
20260504045522 52 0 0.0 2.0 0.00 0.00 0.00 37 1011.7
20260504045021 52 0 0.0 2.0 0.00 0.00 0.00 37 1011.6
20260504044542 52 159 0.0 3.0 0.00 0.00 0.00 37 1011.7
20260504044020 52 0 0.0 4.0 0.00 0.00 0.00 37 1011.7
20260504043520 53 0 1.0 6.0 0.00 0.00 0.00 36 1011.7
20260504043038 53 360 2.0 6.0 0.00 0.00 0.00 36 1011.7
20260504042518 53 360 2.0 6.0 0.00 0.00 0.00 36 1011.7
20260504042018 53 360 3.0 6.0 0.00 0.00 0.00 36 1011.7
20260504041548 54 360 2.0 4.0 0.00 0.00 0.00 35 1011.7
20260504041020 54 360 1.0 4.0 0.00 0.00 0.00 35 1011.8
20260504040522 54 360 1.0 3.0 0.00 0.00 0.00 34 1011.8
20260504040047 55 360 1.0 4.0 0.00 0.00 0.00 33 1011.8
20260504035521 55 360 2.0 4.0 0.00 0.00 0.00 33 1011.8
20260504035021 55 360 2.0 5.0 0.00 0.00 0.00 33 1011.8
20260504034546 55 360 2.0 5.0 0.00 0.00 0.00 33 1011.8
20260504034021 56 360 2.0 5.0 0.00 0.00 0.00 33 1011.8
20260504033525 56 360 1.0 4.0 0.00 0.00 0.00 32 1011.8
20260504033041 56 360 2.0 4.0 0.00 0.00 0.00 32 1011.7
20260504032520 57 360 1.0 4.0 0.00 0.00 0.00 31 1011.6
20260504032020 57 360 1.0 3.0 0.00 0.00 0.00 31 1011.6
20260504031536 58 0 0.0 3.0 0.00 0.00 0.00 30 1011.6
20260504031021 58 0 0.0 2.0 0.00 0.00 0.00 30 1011.6
20260504030520 59 0 0.0 4.0 0.00 0.00 0.00 29 1011.6
20260504030045 59 360 1.0 4.0 0.00 0.00 0.00 29 1011.6
20260504025522 59 360 1.0 4.0 0.00 0.00 0.00 29 1011.5
20260504025022 59 360 1.0 4.0 0.00 0.00 0.00 29 1011.5
20260504024542 59 360 1.0 4.0 0.00 0.00 0.00 29 1011.5
20260504024024 59 360 2.0 4.0 0.00 0.00 0.00 29 1011.4
20260504023521 59 360 1.0 4.0 0.00 0.00 0.00 30 1011.3
20260504023040 59 360 1.0 5.0 0.00 0.00 0.00 30 1011.3
20260504022521 59 360 2.0 5.0 0.00 0.00 0.00 31 1011.3
20260504022023 59 360 3.0 8.0 0.00 0.00 0.00 31 1011.3
20260504021542 59 360 4.0 9.0 0.00 0.00 0.00 31 1011.3
20260504021020 60 360 5.0 9.0 0.00 0.00 0.00 30 1011.3
20260504020520 61 360 3.0 6.0 0.00 0.00 0.00 29 1011.3
20260504020044 62 360 4.0 6.0 0.00 0.00 0.00 28 1011.3
20260504015521 64 360 1.0 8.0 0.00 0.00 0.00 28 1011.3
20260504015027 64 0 2.0 8.0 0.00 0.00 0.00 26 1011.2
20260504014559 64 275 6.0 8.0 0.00 0.00 0.00 25 1011.2
20260504014024 64 295 3.0 8.0 0.00 0.00 0.00 25 1011.2
20260504013525 64 283 4.0 8.0 0.00 0.00 0.00 26 1011.3
20260504013045 64 291 2.0 8.0 0.00 0.00 0.00 25 1011.3
20260504012522 64 291 4.0 8.0 0.00 0.00 0.00 26 1011.3
20260504012021 63 360 4.0 8.0 0.00 0.00 0.00 26 1011.3
20260504011543 63 360 3.0 11.0 0.00 0.00 0.00 25 1011.4
20260504011019 64 360 4.0 11.0 0.00 0.00 0.00 25 1011.4
20260504010519 64 360 4.0 13.0 0.00 0.00 0.00 24 1011.4
20260504010056 64 360 4.0 13.0 0.00 0.00 0.00 24 1011.4
20260504005525 65 360 9.0 13.0 0.00 0.00 0.00 24 1011.4
20260504005021 65 280 7.0 11.0 0.00 0.00 0.00 24 1011.5
20260504004543 65 360 6.0 11.0 0.00 0.00 0.00 24 1011.5
20260504004022 65 360 6.0 12.0 0.00 0.00 0.00 25 1011.5
20260504003521 65 360 3.0 18.0 0.00 0.00 0.00 23 1011.5
20260504003049 65 360 10.0 18.0 0.00 0.00 0.00 23 1011.4
20260504002520 66 360 11.0 17.0 0.00 0.00 0.00 23 1011.5
20260504002020 66 360 9.0 14.0 0.00 0.00 0.00 22 1011.5
20260504001543 67 360 10.0 17.0 0.00 0.00 0.00 22 1011.5
20260504001020 67 360 7.0 17.0 0.00 0.00 0.00 23 1011.6
20260504000520 66 360 11.0 17.0 0.00 0.00 0.00 23 1011.5
20260504000041 66 360 10.0 15.0 0.00 0.00 0.00 23 1011.6
20260503235519 66 360 11.0 15.0 0.00 0.00 0.00 23 1011.6
20260503235019 66 360 7.0 13.0 0.00 0.00 0.00 23 1011.7
20260503234549 66 360 7.0 13.0 0.00 0.00 0.00 22 1011.7
20260503234019 67 360 9.0 13.0 0.00 0.00 0.00 21 1011.7
20260503233521 66 360 7.0 14.0 0.00 0.00 0.00 21 1011.6
20260503233041 67 360 8.0 14.0 0.00 0.00 0.00 22 1011.7
20260503232519 68 360 5.0 10.0 0.00 0.00 0.00 22 1011.6
20260503232021 68 198 2.0 14.0 0.00 0.00 0.00 22 1011.7
20260503231542 68 273 7.0 15.0 0.00 0.00 0.00 22 1011.8
20260503231022 68 281 9.0 15.0 0.00 0.00 0.00 21 1011.8
20260503230525 68 273 2.0 20.0 0.00 0.00 0.00 23 1011.8
20260503230043 68 286 10.0 20.0 0.00 0.00 0.00 22 1011.9
20260503225521 69 295 6.0 17.0 0.00 0.00 0.00 22 1011.9
20260503225022 69 288 5.0 16.0 0.00 0.00 0.00 22 1011.8
20260503224539 68 256 8.0 16.0 0.00 0.00 0.00 22 1011.9
20260503224020 68 301 4.0 13.0 0.00 0.00 0.00 22 1012.0
20260503223523 68 0 2.0 12.0 0.00 0.00 0.00 23 1012.1
20260503223042 68 292 7.0 12.0 0.00 0.00 0.00 23 1012.1
20260503222520 67 261 3.0 15.0 0.00 0.00 0.00 24 1012.1
20260503222024 68 288 8.0 15.0 0.00 0.00 0.00 22 1012.3
20260503221541 69 309 6.0 20.0 0.00 0.00 0.00 22 1012.3
20260503221018 68 360 8.0 20.0 0.00 0.00 0.00 23 1012.3
20260503220524 68 282 11.0 19.0 0.00 0.00 0.00 23 1012.3
20260503220047 68 326 13.0 19.0 0.00 0.00 0.00 24 1012.4
20260503215520 68 284 11.0 17.0 0.00 0.00 0.00 22 1012.5
20260503215020 67 196 5.0 14.0 0.00 0.00 0.00 23 1012.6
20260503214535 67 265 4.0 15.0 0.00 0.00 0.00 23 1012.7
20260503214020 67 360 9.0 15.0 0.00 0.00 0.00 24 1012.9
20260503213521 68 360 9.0 15.0 0.00 0.00 0.00 23 1013.0
20260503213050 66 281 7.0 11.0 0.00 0.00 0.00 25 1013.1
20260503212521 65 277 4.0 16.0 0.00 0.00 0.00 24 1013.1
20260503212021 65 360 5.0 16.0 0.00 0.00 0.00 25 1013.3
20260503211541 66 360 6.0 19.0 0.00 0.00 0.00 25 1013.4
20260503211021 66 360 12.0 19.0 0.00 0.00 0.00 24 1013.5
20260503210520 65 283 8.0 20.0 0.00 0.00 0.00 24 1013.5
20260503210040 65 360 10.0 20.0 0.00 0.00 0.00 24 1013.5
20260503205519 64 274 5.0 12.0 0.00 0.00 0.00 25 1013.5
20260503205019 64 288 8.0 12.0 0.00 0.00 0.00 25 1013.7
20260503204539 65 298 3.0 11.0 0.00 0.00 0.00 25 1013.7
20260503204020 65 360 6.0 13.0 0.00 0.00 0.00 24 1013.8
20260503203521 66 360 7.0 13.0 0.00 0.00 0.00 24 1013.9
20260503203045 67 360 5.0 13.0 0.00 0.00 0.00 23 1013.9
20260503202521 67 296 7.0 19.0 0.00 0.00 0.00 23 1014.0
20260503202022 67 276 7.0 19.0 0.00 0.00 0.00 22 1014.0
20260503201542 66 360 9.0 19.0 0.00 0.00 0.00 24 1014.0
20260503201020 66 360 10.0 18.0 0.00 0.00 0.00 23 1014.1
20260503200520 64 360 3.0 21.0 0.00 0.00 0.00 25 1014.1
20260503200047 64 360 11.0 21.0 0.00 0.00 0.00 24 1014.2
20260503195520 65 360 4.0 13.0 0.00 0.00 0.00 24 1014.2
20260503195020 65 360 8.0 16.0 0.00 0.00 0.00 24 1014.3
20260503194542 64 360 9.0 16.0 0.00 0.00 0.00 25 1014.3
20260503194020 64 360 7.0 15.0 0.00 0.00 0.00 25 1014.2
20260503193520 64 360 6.0 12.0 0.00 0.00 0.00 26 1014.3
20260503193043 64 360 7.0 12.0 0.00 0.00 0.00 25 1014.4
20260503192520 64 360 3.0 13.0 0.00 0.00 0.00 24 1014.4
20260503192021 65 297 8.0 13.0 0.00 0.00 0.00 25 1014.5
20260503191542 65 245 3.0 14.0 0.00 0.00 0.00 25 1014.6
20260503191021 64 360 5.0 14.0 0.00 0.00 0.00 25 1014.6
20260503190520 64 360 3.0 11.0 0.00 0.00 0.00 25 1014.7
20260503190042 64 360 4.0 14.0 0.00 0.00 0.00 25 1014.8
20260503185520 65 360 5.0 14.0 0.00 0.00 0.00 24 1015.0
20260503185023 65 360 6.0 14.0 0.00 0.00 0.00 25 1015.0
20260503184555 65 360 6.0 21.0 0.00 0.00 0.00 23 1014.9
20260503184019 65 360 7.0 21.0 0.00 0.00 0.00 24 1015.1
20260503183517 65 360 5.0 17.0 0.00 0.00 0.00 24 1015.1
20260503183051 65 360 10.0 17.0 0.00 0.00 0.00 24 1015.2
20260503182520 64 360 8.0 21.0 0.00 0.00 0.00 25 1015.2
20260503182021 64 360 12.0 21.0 0.00 0.00 0.00 24 1015.2
20260503181534 64 360 13.0 24.0 0.00 0.00 0.00 25 1015.3
20260503181021 63 360 16.0 24.0 0.00 0.00 0.00 24 1015.4
20260503180521 63 360 7.0 22.0 0.00 0.00 0.00 24 1015.4
20260503180044 64 360 16.0 21.0 0.00 0.00 0.00 25 1015.3
20260503175521 64 360 12.0 20.0 0.00 0.00 0.00 27 1015.6
20260503175025 63 360 9.0 21.0 0.00 0.00 0.00 26 1015.5
20260503174541 64 360 13.0 23.0 0.00 0.00 0.00 25 1015.4
20260503174018 63 360 14.0 23.0 0.00 0.00 0.00 26 1015.6
20260503173524 63 360 11.0 21.0 0.00 0.00 0.00 27 1015.6
20260503173042 62 360 12.0 21.0 0.00 0.00 0.00 27 1015.6
20260503172521 62 360 10.0 18.0 0.00 0.00 0.00 27 1015.7
20260503172021 62 360 11.0 19.0 0.00 0.00 0.00 27 1015.9
20260503171546 62 360 13.0 19.0 0.00 0.00 0.00 28 1016.0
20260503171020 62 360 6.0 16.0 0.00 0.00 0.00 28 1016.0
20260503170521 61 360 10.0 16.0 0.00 0.00 0.00 29 1015.9
20260503150520 55 360 10.0 14.0 0.00 0.00 0.00 33 1016.9